Cloud_Cover
2 4 3 5 0 1 0 5 1 0 0 0 0 0 0 0 4 5 9 100 100 100 100 100 95 100 98 100 100 100 97 89
5 14 5 3 5 5 1 0 0 0 0 0 0 0 0 0 0 5 7 27 54 22 40 97 100 100 93 100 100 100 100 100
11 4 2 0 2 0 0 0 0 0 4 2 0 0 0 4 2 4 0 0 0 0 10 64 100 100 100 100 98 100 100 100
3 0 0 0 0 0 0 0 0 0 0 0 0 0 0 0 1 5 1 0 0 0 0 13 97 100 100 100 100 85 100 100
5 4 0 0 0 0 0 0 0 0 0 0 0 0 0 0 0 0 0 0 0 2 4 3 0 4 100 100 100 100 82 100
5 5 0 2 0 0 0 0 3 2 0 0 0 0 0 0 0 0 4 6 6 35 11 10 5 5 0 95 100 100 100 100
5 5 4 5 0 0 0 4 3 0 0 0 0 0 2 5 5 5 5 5 8 5 5 43 7 6 5 5 70 100 100 100
3 5 5 4 0 0 4 5 1 0 0 0 0 4 5 5 5 5 5 5 5 5 5 5 5 11 5 5 5 24 100 100
5 5 5 0 0 0 5 4 0 0 0 0 0 1 5 5 5 5 5 5 5 5 5 5 5 5 5 5 5 5 1 15
16 5 0 0 0 0 1 0 0 0 0 0 0 0 5 5 4 5 5 6 5 5 5 33 7 8 20 5 5 5 0 0
8 2 0 0 0 0 0 0 0 0 0 0 0 4 5 0 3 5 16 45 10 10 5 48 58 19 5 5 4 0 0 4
5 0 0 0 0 0 0 0 0 5 3 2 0 1 5 0 5 5 10 15 40 36 23 33 94 9 12 5 5 0 2 95
5 0 2 5 0 0 0 0 3 5 5 0 0 0 0 0 5 5 31 5 5 5 48 98 73 5 71 14 5 2 100 28
5 3 0 0 0 0 2 0 0 0 0 0 3 0 0 0 0 5 43 34 5 5 61 100 97 20 89 90 16 2 6 4
2 5 5 3 0 0 0 4 5 5 5 0 1 0 0 1 1 3 33 76 23 5 57 100 100 12 5 100 90 84 31 3
0 5 5 0 0 3 5 4 5 5 1 0 0 0 0 5 5 0 5 96 5 5 55 100 86 69 58 69 74 95 100 69
4 3 0 0 4 0 0 0 1 0 0 0 0 0 4 5 5 0 5 78 5 5 98 100 100 100 72 84 89 29 64 100
0 0 0 5 0 0 0 4 5 0 0 0 1 5 5 5 4 3 5 21 13 5 88 100 100 100 60 77 100 100 98 100
0 0 3 0 0 5 0 1 0 0 1 5 5 5 5 5 5 5 5 42 12 5 41 80 97 100 85 100 86 99 100 99
0 0 0 0 10 2 1 0 0 0 0 5 5 5 5 5 5 5 5 46 5 5 41 50 49 99 89 91 92 99 100 100